timestamp,wind_dir_avg,wind_spd_avg,wind_spd_max_dir,wind_spd_gust,battery_voltage,lat,long
2022-09-05 00:04:00+00:00,229.0,4.49,237.0,5.54,12.49,47.59359,-54.27349
2022-09-05 00:14:00+00:00,236.0,3.5,240.0,4.31,12.49,47.59359,-54.27349
2022-09-05 00:24:00+00:00,249.0,2.93,250.0,3.39,12.49,47.59359,-54.27349
2022-09-05 00:34:00+00:00,227.0,2.88,231.0,3.5,12.49,47.59359,-54.27349
2022-09-05 00:44:00+00:00,227.0,2.89,239.0,4.88,12.49,47.59359,-54.27349
2022-09-05 00:54:00+00:00,212.0,2.64,219.0,3.07,12.49,47.59359,-54.27349
2022-09-05 01:04:00+00:00,212.0,2.9,232.0,3.98,12.49,47.59359,-54.27349
2022-09-05 01:14:00+00:00,215.0,2.24,228.0,2.89,12.41,47.59359,-54.27349
2022-09-05 01:24:00+00:00,244.0,1.35,242.0,1.73,12.41,47.59359,-54.27349
2022-09-05 01:34:00+00:00,220.0,1.55,224.0,1.92,12.41,47.59359,-54.27349
2022-09-05 01:44:00+00:00,236.0,1.25,234.0,1.43,12.41,47.59359,-54.27349
2022-09-05 01:54:00+00:00,256.0,1.39,267.0,1.61,12.41,47.59359,-54.27349
2022-09-05 02:04:00+00:00,284.0,0.86,280.0,1.2,12.41,47.59359,-54.27349
2022-09-05 02:14:00+00:00,258.0,0.94,268.0,1.13,12.41,47.59359,-54.27349
2022-09-05 02:24:00+00:00,254.0,1.12,255.0,1.32,12.41,47.59359,-54.27349
2022-09-05 02:34:00+00:00,272.0,1.91,268.0,2.14,12.41,47.59359,-54.27349
2022-09-05 02:44:00+00:00,264.0,1.32,261.0,1.46,12.41,47.59359,-54.27349
2022-09-05 02:54:00+00:00,259.0,1.14,256.0,1.42,12.41,47.59359,-54.27349
2022-09-05 03:04:00+00:00,234.0,0.66,249.0,0.89,12.41,47.59359,-54.27349
2022-09-05 03:14:00+00:00,261.0,0.81,262.0,0.97,12.33,47.59359,-54.27349
2022-09-05 03:24:00+00:00,236.0,1.04,233.0,1.26,12.33,47.59359,-54.27349
2022-09-05 03:34:00+00:00,251.0,0.93,241.0,1.36,12.33,47.59359,-54.27349
2022-09-05 03:44:00+00:00,268.0,1.05,268.0,1.48,12.33,47.59359,-54.27349
2022-09-05 03:54:00+00:00,344.0,2.14,341.0,2.35,12.33,47.59359,-54.27349
2022-09-05 04:04:00+00:00,336.0,1.82,342.0,2.21,12.33,47.59359,-54.27349
2022-09-05 04:14:01+00:00,344.0,2.0,350.0,2.22,12.41,47.59359,-54.27349
2022-09-05 04:24:01+00:00,346.0,2.1,337.0,2.44,12.41,47.59359,-54.27349
2022-09-05 04:34:01+00:00,354.0,1.85,354.0,2.02,12.41,47.59359,-54.27349
2022-09-05 04:44:01+00:00,345.0,2.08,346.0,2.46,12.41,47.59359,-54.27349
2022-09-05 04:54:01+00:00,347.0,2.81,347.0,3.02,12.41,47.59359,-54.27349
2022-09-05 05:04:01+00:00,341.0,2.59,340.0,2.86,12.41,47.59359,-54.27349
2022-09-05 05:14:01+00:00,340.0,3.0,340.0,3.32,12.41,47.59359,-54.27349
2022-09-05 05:24:01+00:00,340.0,2.64,337.0,2.78,12.41,47.59359,-54.27349
2022-09-05 05:34:01+00:00,318.0,3.28,314.0,3.59,12.41,47.59359,-54.27349
2022-09-05 05:44:01+00:00,304.0,2.48,306.0,2.81,12.41,47.59359,-54.27349
2022-09-05 05:54:01+00:00,294.0,3.04,297.0,3.39,12.41,47.59359,-54.27349
2022-09-05 06:04:01+00:00,326.0,2.44,326.0,2.98,12.41,47.59359,-54.27349
2022-09-05 06:14:00+00:00,339.0,2.74,343.0,3.01,12.33,47.59359,-54.27349
2022-09-05 06:24:00+00:00,344.0,3.94,349.0,4.33,12.33,47.59359,-54.27349
2022-09-05 06:34:00+00:00,352.0,3.57,350.0,3.9,12.33,47.59359,-54.27349
2022-09-05 06:44:00+00:00,347.0,2.97,349.0,3.34,12.33,47.59359,-54.27349
2022-09-05 06:54:00+00:00,351.0,1.69,351.0,2.05,12.33,47.59359,-54.27349
2022-09-05 07:04:00+00:00,0.0,1.13,359.0,1.4,12.33,47.59359,-54.27349
2022-09-05 07:14:01+00:00,38.0,1.29,25.0,1.63,12.33,47.59359,-54.27349
2022-09-05 07:24:01+00:00,33.0,1.68,33.0,1.99,12.33,47.59359,-54.27349
2022-09-05 07:34:01+00:00,30.0,1.87,30.0,2.15,12.33,47.59359,-54.27349
2022-09-05 07:44:01+00:00,16.0,2.12,14.0,2.76,12.33,47.59359,-54.27349
2022-09-05 07:54:01+00:00,20.0,2.36,22.0,2.81,12.33,47.59359,-54.27349
2022-09-05 08:04:01+00:00,352.0,2.07,355.0,2.57,12.33,47.59359,-54.27349
2022-09-05 08:14:01+00:00,354.0,2.2,351.0,2.67,12.25,47.59359,-54.27349
2022-09-05 08:24:01+00:00,349.0,2.88,346.0,3.2,12.25,47.59359,-54.27349
2022-09-05 08:34:01+00:00,349.0,2.39,346.0,2.67,12.25,47.59359,-54.27349
2022-09-05 08:44:01+00:00,330.0,1.95,328.0,2.23,12.25,47.59359,-54.27349
2022-09-05 08:54:01+00:00,325.0,2.02,328.0,2.26,12.25,47.59359,-54.27349
2022-09-05 09:04:01+00:00,329.0,2.39,339.0,2.85,12.25,47.59359,-54.27349
2022-09-05 09:14:00+00:00,328.0,2.17,335.0,2.74,12.25,47.59359,-54.27349
2022-09-05 09:24:00+00:00,334.0,2.14,344.0,2.6,12.25,47.59359,-54.27349
2022-09-05 09:34:00+00:00,315.0,2.95,314.0,3.57,12.25,47.59359,-54.27349
2022-09-05 09:44:00+00:00,323.0,2.92,322.0,3.42,12.25,47.59359,-54.27349
2022-09-05 09:54:00+00:00,333.0,3.14,331.0,3.48,12.25,47.59359,-54.27349
2022-09-05 10:04:00+00:00,323.0,2.64,327.0,3.03,12.25,47.59359,-54.27349
2022-09-05 10:14:00+00:00,339.0,1.74,351.0,1.92,12.57,47.59359,-54.27349
2022-09-05 10:24:00+00:00,331.0,2.53,337.0,2.95,12.57,47.59359,-54.27349
2022-09-05 10:34:00+00:00,328.0,2.4,330.0,2.78,12.57,47.59359,-54.27349
2022-09-05 10:44:00+00:00,340.0,2.36,341.0,3.1,12.57,47.59359,-54.27349
2022-09-05 10:54:00+00:00,324.0,1.77,327.0,2.03,12.57,47.59359,-54.27349
2022-09-05 11:04:00+00:00,328.0,1.85,329.0,2.1,12.57,47.59359,-54.27349
2022-09-05 11:14:01+00:00,318.0,2.16,325.0,2.35,13.29,47.59359,-54.27349
2022-09-05 11:24:01+00:00,327.0,2.45,329.0,2.85,13.29,47.59359,-54.27349
2022-09-05 11:34:01+00:00,343.0,2.45,341.0,2.88,13.29,47.59359,-54.27349
2022-09-05 11:44:01+00:00,1.0,1.63,2.0,1.82,13.29,47.59359,-54.27349
2022-09-05 11:54:01+00:00,341.0,2.07,342.0,2.66,13.29,47.59359,-54.27349
2022-09-05 12:04:01+00:00,353.0,0.77,354.0,1.01,13.29,47.59359,-54.27349
2022-09-05 12:14:00+00:00,354.0,2.12,352.0,2.28,13.84,47.59359,-54.27349
2022-09-05 12:24:00+00:00,5.0,1.1,3.0,1.51,13.84,47.59359,-54.27349
2022-09-05 12:34:00+00:00,352.0,1.12,345.0,1.31,13.84,47.59359,-54.27349
2022-09-05 12:44:00+00:00,333.0,0.62,326.0,0.88,13.84,47.59359,-54.27349
2022-09-05 12:54:00+00:00,280.0,0.21,240.0,0.42,13.84,47.59359,-54.27349
2022-09-05 13:04:00+00:00,192.0,1.21,194.0,1.47,13.84,47.59359,-54.27349
2022-09-05 13:14:00+00:00,186.0,1.01,183.0,1.36,13.68,47.59359,-54.27349
2022-09-05 13:24:00+00:00,169.0,1.16,172.0,1.41,13.68,47.59359,-54.27349
2022-09-05 13:34:00+00:00,178.0,1.2,175.0,1.37,13.68,47.59359,-54.27349
2022-09-05 13:44:00+00:00,187.0,1.53,183.0,1.69,13.68,47.59359,-54.27349
2022-09-05 13:54:00+00:00,181.0,1.47,181.0,1.6,13.68,47.59359,-54.27349
2022-09-05 14:04:00+00:00,171.0,1.73,177.0,2.02,13.68,47.59359,-54.27349
2022-09-05 14:14:01+00:00,173.0,1.63,175.0,1.83,13.84,47.59359,-54.27349
2022-09-05 14:24:01+00:00,161.0,1.77,157.0,2.11,13.84,47.59359,-54.27349
2022-09-05 14:34:01+00:00,150.0,1.67,150.0,1.9,13.84,47.59359,-54.27349
2022-09-05 14:44:01+00:00,162.0,1.53,163.0,1.74,13.84,47.59359,-54.27349
2022-09-05 14:54:01+00:00,160.0,1.92,162.0,2.2,13.84,47.59359,-54.27349
2022-09-05 15:04:01+00:00,164.0,1.65,164.0,1.84,13.84,47.59359,-54.27349
2022-09-05 15:14:00+00:00,181.0,1.13,175.0,1.29,14.0,47.59359,-54.27349
2022-09-05 15:24:00+00:00,207.0,1.02,213.0,1.16,14.0,47.59359,-54.27349
2022-09-05 15:34:00+00:00,165.0,0.61,167.0,1.16,14.0,47.59359,-54.27349
2022-09-05 15:44:00+00:00,229.0,0.49,234.0,0.75,14.0,47.59359,-54.27349
2022-09-05 15:54:00+00:00,137.0,0.99,140.0,1.23,14.0,47.59359,-54.27349
2022-09-05 16:04:00+00:00,152.0,1.08,156.0,1.26,14.0,47.59359,-54.27349
2022-09-05 16:14:00+00:00,207.0,0.97,211.0,1.12,13.84,47.59359,-54.27349
2022-09-05 16:24:00+00:00,280.0,0.96,284.0,1.14,13.84,47.59359,-54.27349
2022-09-05 16:34:00+00:00,273.0,1.75,273.0,1.96,13.84,47.59359,-54.27349
2022-09-05 16:44:00+00:00,260.0,1.53,255.0,1.83,13.84,47.59359,-54.27349
2022-09-05 16:54:00+00:00,254.0,2.45,258.0,3.23,13.84,47.59359,-54.27349
2022-09-05 17:04:00+00:00,257.0,1.41,257.0,1.75,13.84,47.59359,-54.27349
2022-09-05 17:14:00+00:00,263.0,2.08,265.0,2.22,13.84,47.59359,-54.27349
2022-09-05 17:24:00+00:00,279.0,1.62,284.0,1.81,13.84,47.59359,-54.27349
2022-09-05 17:34:00+00:00,264.0,1.19,266.0,1.31,13.84,47.59359,-54.27349
2022-09-05 17:44:00+00:00,249.0,1.65,249.0,1.77,13.84,47.59359,-54.27349
2022-09-05 17:54:00+00:00,239.0,2.14,238.0,2.32,13.84,47.59359,-54.27349
2022-09-05 18:04:00+00:00,240.0,1.93,251.0,3.18,13.84,47.59359,-54.27349
2022-09-05 18:14:00+00:00,250.0,1.59,244.0,1.84,14.32,47.59359,-54.27349
2022-09-05 18:24:00+00:00,217.0,1.45,212.0,1.65,14.32,47.59359,-54.27349
2022-09-05 18:34:00+00:00,215.0,1.84,218.0,2.08,14.32,47.59359,-54.27349
2022-09-05 18:44:00+00:00,204.0,2.3,204.0,2.44,14.32,47.59359,-54.27349
2022-09-05 18:54:00+00:00,221.0,1.65,223.0,1.8,14.32,47.59359,-54.27349
2022-09-05 19:04:00+00:00,227.0,3.19,241.0,4.9,14.32,47.59359,-54.27349
2022-09-05 19:14:00+00:00,233.0,2.78,243.0,4.03,13.76,47.59359,-54.27349
2022-09-05 19:24:00+00:00,229.0,2.05,241.0,2.74,13.76,47.59359,-54.27349
2022-09-05 19:34:00+00:00,224.0,2.04,227.0,2.22,13.76,47.59359,-54.27349
2022-09-05 19:44:00+00:00,231.0,2.0,231.0,2.14,13.76,47.59359,-54.27349
2022-09-05 19:54:00+00:00,271.0,2.47,270.0,2.57,13.76,47.59359,-54.27349
2022-09-05 20:04:00+00:00,260.0,2.18,261.0,2.28,13.76,47.59359,-54.27349
2022-09-05 20:14:00+00:00,273.0,2.17,271.0,2.27,13.44,47.59359,-54.27349
2022-09-05 20:24:00+00:00,275.0,1.49,277.0,1.59,13.44,47.59359,-54.27349
2022-09-05 20:34:00+00:00,271.0,1.71,270.0,1.84,13.44,47.59359,-54.27349
2022-09-05 20:44:00+00:00,295.0,2.11,295.0,2.24,13.44,47.59359,-54.27349
2022-09-05 20:54:00+00:00,298.0,1.97,298.0,2.16,13.44,47.59359,-54.27349
2022-09-05 21:04:00+00:00,295.0,1.91,295.0,2.01,13.44,47.59359,-54.27349
2022-09-05 21:14:00+00:00,304.0,1.47,304.0,1.55,13.21,47.59359,-54.27349
2022-09-05 21:24:00+00:00,316.0,1.61,317.0,1.68,13.21,47.59359,-54.27349
2022-09-05 21:34:00+00:00,0.0,1.77,4.0,1.96,13.21,47.59359,-54.27349
2022-09-05 21:44:00+00:00,35.0,2.0,30.0,2.39,13.21,47.59359,-54.27349
2022-09-05 21:54:00+00:00,41.0,3.2,35.0,3.9,13.21,47.59359,-54.27349
2022-09-05 22:04:00+00:00,42.0,2.65,51.0,2.99,13.21,47.59359,-54.27349
2022-09-05 22:14:00+00:00,69.0,3.95,70.0,4.4,12.65,47.59359,-54.27349
2022-09-05 22:24:00+00:00,70.0,4.27,68.0,4.85,12.65,47.59359,-54.27349
2022-09-05 22:34:00+00:00,57.0,5.07,52.0,5.56,12.65,47.59359,-54.27349
2022-09-05 22:44:00+00:00,38.0,10.5,35.0,11.81,12.65,47.59359,-54.27349
2022-09-05 22:54:00+00:00,39.0,11.88,44.0,13.34,12.65,47.59359,-54.27349
2022-09-05 23:04:00+00:00,37.0,10.55,35.0,11.9,12.65,47.59359,-54.27349
2022-09-05 23:14:01+00:00,44.0,11.13,48.0,13.23,12.49,47.59359,-54.27349
2022-09-05 23:24:01+00:00,40.0,10.72,37.0,12.26,12.49,47.59359,-54.27349
2022-09-05 23:34:01+00:00,42.0,10.89,44.0,12.46,12.49,47.59359,-54.27349
2022-09-05 23:44:01+00:00,40.0,10.14,46.0,11.71,12.49,47.59359,-54.27349
2022-09-05 23:54:01+00:00,47.0,10.8,49.0,12.21,12.49,47.59359,-54.27349
